This is the latest recevied weather packets stored in our database for station/object PY1LEO-13. If no packets are shown the sender has not sent any weather packets the latest 10 day(s).
| Time | Temp. | Humidity | Pressure | Rain* | Wind** | Luminosity | Snow |
|---|---|---|---|---|---|---|---|
| 1777385159 | 27.78° C | 72% | 1017 hPa | - | - | - | - |
| 1777384859 | 28.33° C | 69% | 1017.1 hPa | - | - | - | - |
| 1777384559 | 27.78° C | 71% | 1017.2 hPa | - | - | - | - |
| 1777384259 | 27.78° C | 71% | 1017.2 hPa | - | - | - | - |
| 1777383959 | 27.78° C | 72% | 1017.2 hPa | - | - | - | - |
| 1777383659 | 27.78° C | 72% | 1017.3 hPa | - | - | - | - |
| 1777383359 | 28.33° C | 70% | 1017.3 hPa | - | - | - | - |
| 1777383059 | 27.78° C | 70% | 1017.3 hPa | - | - | - | - |
| 1777382759 | 27.78° C | 70% | 1017.3 hPa | - | - | - | - |
| 1777381253 | 27.78° C | 70% | 1017.5 hPa | - | - | - | - |
| 1777380953 | 27.78° C | 70% | 1017.5 hPa | - | - | - | - |
| 1777380053 | 27.22° C | 73% | 1017.5 hPa | - | - | - | - |
| 1777379753 | 27.22° C | 73% | 1017.4 hPa | - | - | - | - |
| 1777379454 | 27.22° C | 74% | 1017.4 hPa | - | - | - | - |
| 1777378853 | 27.22° C | 74% | 1017.2 hPa | - | - | - | - |
| 1777378554 | 27.78° C | 73% | 1017.1 hPa | - | - | - | - |
| 1777378253 | 27.78° C | 73% | 1017 hPa | - | - | - | - |
| 1777377953 | 27.22° C | 74% | 1017 hPa | - | - | - | - |
| 1777377653 | 27.22° C | 74% | 1017 hPa | - | - | - | - |
| 1777377353 | 27.22° C | 73% | 1016.9 hPa | - | - | - | - |
| 1777377053 | 27.22° C | 75% | 1016.9 hPa | - | - | - | - |
| 1777376753 | 27.22° C | 74% | 1016.9 hPa | - | - | - | - |
| 1777376454 | 27.22° C | 75% | 1016.9 hPa | - | - | - | - |
| 1777376153 | 27.22° C | 75% | 1016.9 hPa | - | - | - | - |
| 1777375854 | 27.22° C | 74% | 1016.8 hPa | - | - | - | - |
* Rain since midnight (hover to see other rain measurements)
** Current wind speed in m/s (hover to see current wind gust speed)